Location: Fredericksburg
(30.2750°N, 98.8720°W)
Time: 17:07:32
(UTC-06:00)

PCSat - Visible Passes

Search period start: 02 March 2015 00:00
Search period end: 12 March 2015 01:00
Orbit: 786 x 795 km, 67.1° (Epoch: 01 March)

Date Brightness Start Highest point End Pass type
(mag) Time Alt. Az. Time Alt. Az. Time Alt. Az.
02 Mar 10.9 19:48:58 10° SSE 19:51:29 20° SE 19:51:29 20° SE visible
02 Mar 12.0 21:31:23 10° SW 21:32:22 15° WSW 21:32:22 15° WSW visible
03 Mar 10.4 06:24:30 10° NNW 06:29:49 54° ENE 06:35:06 10° SE visible
03 Mar 11.0 19:19:29 10° SE 19:22:30 16° ESE 19:23:52 15° E visible
03 Mar 10.4 21:00:19 10° SW 21:04:45 46° W 21:04:45 46° W visible
04 Mar 11.1 05:54:04 10° N 05:59:04 38° ENE 06:04:05 10° SE visible
04 Mar 9.7 20:29:27 10° SSW 20:34:51 73° WNW 20:37:25 32° NNE visible
05 Mar 11.6 05:23:44 10° N 05:28:15 27° ENE 05:32:50 10° ESE visible
05 Mar 9.4 19:58:47 10° SSW 20:04:10 79° ESE 20:09:37 10° NNE visible
05 Mar 12.5 21:46:10 10° WNW 21:48:19 12° NW 21:50:08 10° NNW visible
06 Mar 12.0 04:53:36 10° N 04:57:23 19° NE 05:01:19 10° ESE visible
06 Mar 9.7 19:28:18 10° S 19:33:32 54° ESE 19:38:50 10° NE visible
06 Mar 12.1 21:13:49 10° W 21:17:22 17° NW 21:20:41 10° NNW visible
07 Mar 12.4 04:23:49 10° NNE 04:26:27 14° NE 04:29:21 10° E visible
07 Mar 9.5 06:05:03 10° NNW 06:10:26 67° WSW 06:15:47 10° SSE visible
07 Mar 10.1 18:58:02 10° S 19:02:55 37° ESE 19:07:54 10° NE visible
07 Mar 11.8 20:42:07 10° WSW 20:46:27 23° NW 20:50:41 10° N visible
08 Mar 9.6 06:34:21 10° NNW 06:39:47 85° ENE 06:45:11 10° SSE visible
08 Mar 11.3 21:10:46 10° WSW 21:15:37 32° WNW 21:20:26 10° N visible
09 Mar 10.1 06:03:44 10° NNW 06:09:05 59° ENE 06:14:25 10° SE visible
09 Mar 10.7 20:39:39 10° SW 20:44:50 46° WNW 20:50:02 10° N visible
10 Mar 10.7 05:33:15 10° N 05:38:21 41° ENE 05:43:26 10° SE visible
10 Mar 10.8 07:17:37 10° WNW 07:21:30 20° WSW 07:25:10 10° SSW visible
10 Mar 10.0 20:08:44 10° SSW 20:14:07 67° WNW 20:19:31 10° NNE visible
11 Mar 11.3 05:05:58 25° NNE 05:07:33 29° ENE 05:12:15 10° ESE visible
11 Mar 10.4 06:46:54 13° NW 06:50:54 28° WSW 06:55:24 10° SSW visible
11 Mar 12.6 21:26:06 10° WNW 21:27:39 11° NW 21:28:51 10° NW visible
